Dewpoint
27 20 19 21 24 28 29 37 40 40 44 44 48 52 57 59 59 61 60 57 58 58 57 55 54 55 57 60 65 66 67 71 69 68 65 65 66 73 75 74 73 72 71 72
25 22 19 17 22 22 29 33 37 39 43 41 46 48 52 57 60 60 61 60 59 57 54 56 56 56 57 60 64 67 69 72 71 67 69 67 72 69 68 72 72 71 71 73
21 21 21 18 23 28 31 32 35 38 35 35 34 41 48 51 54 61 60 60 58 55 53 57 57 58 58 60 63 67 70 72 72 72 72 70 72 74 68 75 70 71 71 71
21 19 19 19 29 31 28 31 33 32 33 33 34 32 46 47 51 55 57 59 57 57 55 57 58 59 59 60 61 66 69 72 72 73 73 75 71 67 71 69 73 71 72 71
21 19 20 24 29 30 25 26 33 31 30 30 31 29 38 47 48 52 55 58 58 58 57 57 58 61 61 60 58 63 69 72 74 75 75 71 72 71 70 73 73 74 76 74
23 22 24 25 27 31 33 29 33 32 29 24 27 27 37 41 47 47 52 56 57 56 59 57 59 61 61 59 60 61 69 73 73 73 74 74 72 72 73 71 69 68 71 71
28 28 22 27 29 33 34 30 25 23 23 22 23 21 41 44 45 44 43 53 56 57 58 59 59 61 61 61 61 63 70 73 73 72 73 74 74 72 71 72 69 70 68 73
23 23 25 30 32 32 32 29 23 23 18 18 21 29 40 46 48 49 50 51 54 55 59 59 60 62 62 63 64 63 72 73 72 72 75 76 76 70 69 70 69 67 66 71
22 22 23 26 32 31 31 29 22 18 17 14 26 40 42 46 48 51 52 55 54 53 57 60 61 61 62 64 66 65 70 75 73 72 75 76 76 75 71 73 73 69 75 72
24 23 21 20 24 26 27 30 25 22 24 19 24 35 35 45 48 50 53 59 61 61 60 61 64 63 62 63 63 65 68 72 72 72 72 72 73 75 74 73 73 72 72 73
22 22 21 21 23 21 25 26 27 22 20 19 21 32 41 46 48 51 57 59 61 61 62 64 62 63 65 64 64 63 66 69 70 71 73 74 73 72 74 72 72 73 73 74
25 21 21 19 23 24 23 25 27 25 26 21 23 31 42 47 47 54 57 57 58 59 60 61 63 65 65 68 68 64 64 65 67 70 73 72 73 73 72 73 72 73 74 75
28 23 22 22 20 22 22 23 23 23 21 28 21 34 45 48 49 52 53 56 56 57 58 59 60 61 63 66 68 68 67 63 64 68 69 70 71 72 72 73 74 73 75 75
38 22 24 21 23 20 22 22 23 21 22 23 24 39 44 47 49 51 52 53 53 55 57 57 58 60 60 62 65 67 67 69 70 68 67 71 72 73 72 73 75 74 75 75
28 25 24 24 20 21 20 21 19 22 23 24 36 39 43 45 47 50 51 51 51 52 52 53 54 57 59 60 61 62 64 67 70 70 70 71 72 73 74 75 75 74 75 75
29 29 31 23 21 19 18 18 18 19 21 24 37 40 44 44 43 45 46 47 48 50 50 50 51 52 54 58 59 58 60 63 69 70 70 72 73 75 74 74 74 75 75 76
31 28 30 24 22 20 18 19 19 19 19 24 31 39 41 41 40 42 44 45 46 47 48 49 49 49 50 50 56 58 58 62 65 67 66 68 73 73 74 75 75 76 76 75
30 32 29 22 25 19 24 27 19 18 25 30 37 37 39 39 37 43 44 44 44 46 46 46 45 47 48 47 47 54 58 60 61 62 63 65 67 70 73 74 74 75 75 75
28 30 26 22 20 21 25 28 25 23 31 32 35 35 34 34 36 42 42 41 42 43 44 45 44 44 47 49 49 51 53 57 58 60 60 62 65 67 68 71 73 73 74 74
27 32 29 24 21 17 27 26 29 26 28 34 34 35 33 32 25 42 41 39 39 40 42 43 43 44 45 48 48 51 51 52 56 57 60 61 60 64 67 69 70 73 76 73
30 30 29 28 26 27 33 30 28 24 32 36 33 34 33 32 37 39 38 40 41 41 42 43 43 43 46 48 50 51 52 52 54 55 56 60 62 63 62 67 70 71 73 75
32 34 30 30 28 28 34 30 27 40 39 35 34 34 35 36 35 36 38 39 41 42 42 42 43 44 45 47 49 51 52 55 57 57 57 57 59 58 56 63 66 69 70 71
36 32 40 33 36 41 35 35 39 37 37 35 35 33 34 32 33 35 37 39 40 42 43 43 44 46 46 47 50 51 54 55 55 56 59 58 58 58 58 59 61 60 68 66
34 36 40 35 36 36 35 36 34 32 35 34 33 33 33 34 34 35 36 39 40 41 42 44 46 46 47 48 49 51 52 54 55 55 57 58 56 55 56 53 52 52 55 58
36 37 37 36 35 35 36 33 34 34 35 34 34 34 34 35 35 35 37 39 40 42 43 44 44 45 46 48 49 50 52 53 53 53 53 54 54 53 51 53 50 51 56 52
33 35 39 39 36 37 35 37 38 38 36 35 35 35 36 36 36 38 39 40 41 42 42 43 44 44 45 46 48 50 52 54 54 52 51 50 50 50 50 47 47 47 47 47
Lifted_Index
7 6 6 6 5 3 0 -1 -1 -2 -2 -3 -3 -4 -4 -4 -4 -4 -4 -3 -3 -2 -1 0 1 1 1 1 -0 -1 -2 -2 -3 -3 -3 -3 -4 -4 -5 -5 -5 -5 -5 -5
6 6 6 5 5 3 0 -1 -1 -2 -2 -2 -3 -3 -4 -4 -4 -4 -4 -4 -3 -2 -1 -0 0 0 1 0 -0 -1 -2 -3 -3 -3 -3 -3 -4 -4 -5 -5 -5 -5 -5 -5
5 5 5 5 4 3 1 -0 -1 -1 -1 -1 -2 -3 -3 -3 -3 -4 -4 -4 -4 -2 -1 -1 -1 -1 -0 -0 -0 -1 -2 -3 -4 -4 -4 -4 -4 -4 -4 -5 -5 -5 -5 -5
4 4 5 5 4 2 1 0 -1 -1 -1 -1 -1 -2 -2 -2 -3 -4 -4 -4 -4 -3 -2 -2 -2 -2 -1 -1 -0 -1 -2 -3 -4 -4 -4 -4 -4 -4 -4 -4 -5 -5 -5 -5
4 4 4 4 3 2 1 0 -1 -1 -0 -1 -1 -1 -1 -2 -3 -4 -4 -5 -4 -4 -3 -2 -2 -2 -2 -1 -0 -1 -2 -3 -4 -5 -5 -4 -4 -4 -4 -4 -5 -5 -5 -5
3 3 4 3 3 1 0 -0 -0 -0 -0 -0 -0 -1 -1 -2 -3 -3 -4 -4 -5 -4 -4 -3 -3 -3 -2 -2 -1 -1 -2 -4 -4 -5 -5 -5 -4 -4 -4 -4 -4 -4 -4 -4
2 3 3 3 2 1 -0 -0 -0 -0 -0 -1 -0 -1 -1 -2 -2 -2 -3 -4 -5 -5 -5 -4 -4 -3 -3 -2 -2 -2 -3 -4 -5 -5 -5 -5 -5 -4 -4 -4 -4 -4 -4 -4
1 2 3 2 1 0 -1 -0 -0 -0 -1 -1 -1 -1 -1 -2 -2 -3 -4 -5 -5 -5 -5 -5 -4 -4 -4 -3 -3 -4 -5 -5 -5 -5 -5 -6 -5 -4 -4 -3 -3 -3 -3 -3
0 1 3 3 2 1 0 -0 -0 -0 -1 -1 -1 -1 -2 -2 -2 -3 -4 -5 -6 -6 -6 -5 -4 -5 -5 -5 -4 -4 -5 -6 -6 -6 -6 -6 -6 -5 -4 -3 -3 -3 -3 -3
0 1 3 4 3 2 1 0 -0 -0 -1 -1 -1 -1 -2 -2 -2 -3 -4 -5 -5 -5 -5 -5 -5 -5 -5 -5 -5 -5 -5 -6 -6 -6 -6 -6 -6 -6 -5 -4 -3 -3 -3 -3
0 1 3 4 4 3 2 1 -0 -0 -0 -1 -1 -1 -1 -1 -1 -2 -3 -4 -5 -5 -5 -5 -5 -5 -5 -5 -5 -5 -5 -6 -6 -6 -6 -6 -6 -6 -6 -5 -4 -3 -3 -3
1 1 2 3 4 3 2 1 0 -0 -0 -0 -0 -0 -1 -1 -1 -2 -2 -3 -3 -4 -4 -4 -4 -5 -5 -5 -5 -5 -5 -5 -6 -6 -6 -6 -6 -6 -6 -6 -5 -4 -4 -4
1 1 1 2 3 3 3 2 1 0 -0 -0 -0 -0 -1 -1 -1 -1 -1 -1 -2 -2 -2 -2 -3 -4 -4 -4 -4 -4 -5 -5 -5 -6 -6 -6 -6 -6 -6 -6 -6 -5 -5 -5
1 1 0 1 2 2 2 3 2 1 0 -0 -0 -1 -1 -1 -1 -1 -0 -0 -0 -0 -0 -0 -1 -2 -3 -4 -4 -4 -4 -5 -5 -5 -6 -6 -6 -6 -6 -6 -6 -6 -5 -5
0 0 0 1 2 2 2 3 3 3 1 0 -1 -1 -0 0 0 1 1 1 1 1 1 1 0 -1 -2 -3 -3 -3 -3 -4 -4 -5 -5 -6 -6 -6 -6 -6 -6 -6 -6 -6
-0 -0 -0 1 2 2 2 3 4 4 2 0 -1 0 1 2 2 3 3 3 3 3 2 2 1 1 0 -0 -2 -2 -3 -4 -4 -4 -4 -5 -5 -6 -6 -6 -6 -6 -6 -6
-0 -1 -0 0 1 2 2 3 4 4 3 1 0 2 3 3 4 4 4 4 4 4 4 3 3 3 3 3 1 -0 -1 -3 -3 -4 -4 -4 -5 -5 -5 -6 -6 -6 -6 -6
1 0 0 0 1 1 2 3 3 3 3 2 2 3 4 5 5 5 5 6 6 6 6 6 5 5 5 5 5 3 1 -0 -2 -3 -3 -3 -4 -4 -5 -5 -5 -6 -6 -6
2 2 1 1 0 1 2 3 3 3 3 3 3 4 5 5 5 5 6 7 7 8 8 8 7 7 6 6 6 6 4 3 1 -1 -1 -2 -2 -3 -3 -4 -5 -5 -6 -6
3 2 2 1 1 1 2 3 3 3 3 3 4 4 5 5 5 6 7 8 8 9 9 9 9 8 8 8 7 6 6 5 4 3 2 1 1 0 -1 -2 -4 -5 -5 -6
2 2 2 1 1 1 2 3 3 3 3 4 5 5 6 5 6 7 8 8 8 9 9 9 9 9 9 9 8 7 7 6 6 5 4 4 4 3 2 0 -2 -3 -4 -5
2 2 1 1 1 1 3 4 3 3 4 5 6 6 6 6 7 8 8 8 8 9 9 9 9 10 10 9 9 8 8 7 7 6 6 5 5 5 5 3 1 -1 -2 -3
2 1 1 1 1 2 3 4 4 4 5 6 6 7 7 7 7 8 8 8 8 9 9 9 9 9 9 9 9 9 8 8 7 7 6 6 6 6 6 5 4 2 0 -1
2 1 1 1 2 2 3 4 5 5 6 6 7 7 7 7 7 8 8 8 8 9 9 9 9 9 9 9 9 9 9 8 8 7 6 6 6 6 6 6 6 5 3 2
1 1 1 1 2 3 3 4 5 5 5 6 6 7 7 7 7 8 8 8 9 9 9 9 9 9 9 9 9 9 9 8 7 7 7 6 6 7 7 7 7 7 6 6
1 1 1 1 2 2 3 4 4 4 5 5 6 6 6 7 7 7 8 8 9 9 9 10 10 10 10 9 9 9 8 8 7 7 6 6 7 7 7 8 8 8 7 7